Colby, KS

5:40 AM CDT on April 23, 2018 (GMT -0500)
Shaltz

Weather History for KCBK - February, 2013

Change the Weather History Date:

Tuesday, February 26, 2013

  Actual Average (KGLD) Record (KGLD)
Temperature  
Mean Temperature 22 °F -  
Max Temperature 33 °F 49 °F 71 °F (1896)
Min Temperature 10 °F 23 °F -6 °F (1960)
Degree Days  
Heating Degree Days 44    
Moisture  
Dew Point 20 °F    
Average Humidity 88    
Maximum Humidity 100    
Minimum Humidity 75    
Precipitation  
Precipitation 0.00 in - - ()
Sea Level Pressure  
Sea Level Pressure 29.85 in    
Wind  
Wind Speed 9 mph (NW)    
Max Wind Speed 15 mph    
Max Gust Speed -    
Visibility 10 miles    
Events      
Averages and records for this station are not official NWS values.
T = Trace of Precipitation, MM = Missing Value Source: NWS Daily Summary

Daily Weather History Graph

Daily Weather History Graph

Search for Another Location

Airport or City:

Astronomy

Feb. 26, 2013 Rise Set
Actual Time 7:20 AM CST 6:33 PM CST
Civil Twilight 6:53 AM CST 7:00 PM CST
Nautical Twilight 6:22 AM CST 7:31 PM CST
Astronomical Twilight 5:51 AM CST 8:02 PM CST
Moon 7:51 PM CST (2/26) 7:25 AM CST (2/26)
Length of Visible Light 12h 06m
Length of Day
11h 12m
Full, 99% of the Moon is Illuminated
Feb 26
Full
Mar 4
Last Quarter
Mar 11
New
Mar 19
First Quarter
Mar 27
Full

Hourly Weather History & Observations

Time (CST) Temp. Windchill Dew Point Humidity Pressure Visibility Wind Dir Wind Speed Gust Speed Precip Events Conditions
12:15 AM 17.6 °F 6.4 °F 17.6 °F 100% 29.88 in 10.0 mi NW 9.2 mph - N/A   Clear
12:35 AM 17.6 °F 5.7 °F 17.6 °F 100% 29.87 in 10.0 mi WNW 10.4 mph - N/A   Clear
12:55 AM 17.6 °F 5.0 °F 17.6 °F 100% 29.88 in 10.0 mi WNW 11.5 mph - N/A   Clear
1:15 AM 17.6 °F 7.3 °F 17.6 °F 100% 29.88 in 10.0 mi NW 8.1 mph - N/A   Clear
1:35 AM 21.2 °F 10.1 °F 19.4 °F 93% 29.88 in 10.0 mi NNW 10.4 mph - N/A   Clear
1:55 AM 17.6 °F 5.7 °F 15.8 °F 93% 29.88 in 10.0 mi NW 10.4 mph - N/A   Clear
2:15 AM 14.0 °F 0.5 °F 14.0 °F 100% 29.87 in 10.0 mi NW 11.5 mph - N/A   Clear
2:35 AM 14.0 °F 0.5 °F 14.0 °F 100% 29.85 in 10.0 mi WNW 11.5 mph - N/A   Clear
2:55 AM 15.8 °F 2.7 °F 14.0 °F 93% 29.85 in 10.0 mi WNW 11.5 mph - N/A   Clear
3:15 AM 14.0 °F 1.2 °F 14.0 °F 100% 29.85 in 10.0 mi WNW 10.4 mph - N/A   Clear
3:35 AM 15.8 °F 4.2 °F 14.0 °F 93% 29.84 in 10.0 mi WNW 9.2 mph - N/A   Clear
3:55 AM 15.8 °F 4.2 °F 14.0 °F 93% 29.84 in 10.0 mi NW 9.2 mph - N/A   Clear
4:15 AM 14.0 °F 2.0 °F 12.2 °F 93% 29.84 in 10.0 mi NW 9.2 mph - N/A   Clear
4:35 AM 14.0 °F 0.5 °F 14.0 °F 100% 29.84 in 10.0 mi WNW 11.5 mph - N/A   Clear
4:55 AM 14.0 °F 2.0 °F 12.2 °F 93% 29.83 in 10.0 mi WNW 9.2 mph - N/A   Clear
5:15 AM 12.2 °F -1.0 °F 12.2 °F 100% 29.82 in 10.0 mi WNW 10.4 mph - N/A   Clear
5:35 AM 12.2 °F -1.8 °F 12.2 °F 100% 29.82 in 10.0 mi WNW 11.5 mph - N/A   Clear
5:55 AM 12.2 °F -3.7 °F 10.4 °F 92% 29.82 in 10.0 mi NW 15.0 mph - N/A   Clear
6:15 AM 17.6 °F 3.7 °F 15.8 °F 93% 29.81 in 10.0 mi NNW 13.8 mph - N/A   Clear
6:35 AM 12.2 °F -3.1 °F 10.4 °F 92% 29.80 in 10.0 mi NW 13.8 mph - N/A   Clear
6:55 AM 12.2 °F -2.5 °F 10.4 °F 92% 29.82 in 10.0 mi WNW 12.7 mph - N/A   Clear
7:15 AM 10.4 °F -4.1 °F 8.6 °F 92% 29.82 in 10.0 mi West 11.5 mph - N/A   Clear
7:35 AM 10.4 °F -4.1 °F 8.6 °F 92% 29.82 in 10.0 mi West 11.5 mph - N/A   Clear
7:55 AM 12.2 °F 0.7 °F 10.4 °F 92% 29.83 in 10.0 mi WNW 8.1 mph - N/A   Clear
8:15 AM 12.2 °F 2.9 °F 10.4 °F 92% 29.83 in 10.0 mi WNW 5.8 mph - N/A   Clear
8:35 AM 14.0 °F - 12.2 °F 93% 29.84 in 10.0 mi Calm Calm - N/A   Clear
8:55 AM 15.8 °F - 12.2 °F 86% 29.84 in 10.0 mi Calm Calm - N/A   Clear
9:15 AM 15.8 °F 5.1 °F 12.2 °F 86% 29.84 in 10.0 mi WNW 8.1 mph - N/A   Clear
9:35 AM 17.6 °F 6.4 °F 14.0 °F 86% 29.84 in 10.0 mi WNW 9.2 mph - N/A   Clear
9:55 AM 19.4 °F 9.5 °F 17.6 °F 93% 29.82 in 10.0 mi NW 8.1 mph - N/A   Clear
10:15 AM 23.0 °F 13.9 °F 19.4 °F 86% 29.82 in 10.0 mi NW 8.1 mph - N/A   Clear
10:35 AM 24.8 °F 16.9 °F 21.2 °F 86% 29.82 in 10.0 mi NW 6.9 mph - N/A   Clear
10:55 AM 26.6 °F 17.5 °F 21.2 °F 80% 29.82 in 10.0 mi NW 9.2 mph - N/A   Clear
11:15 AM 28.4 °F 19.7 °F 23.0 °F 80% 29.83 in 10.0 mi NNW 9.2 mph - N/A   Clear
11:35 AM 30.2 °F 21.9 °F 23.0 °F 75% 29.82 in 10.0 mi NW 9.2 mph - N/A   Clear
11:55 AM 30.2 °F 22.6 °F 23.0 °F 75% 29.82 in 10.0 mi NW 8.1 mph - N/A   Clear
12:15 PM 32.0 °F 25.6 °F 24.8 °F 75% 29.82 in 10.0 mi NW 6.9 mph - N/A   Clear
12:35 PM 32.0 °F 25.6 °F 26.6 °F 80% 29.82 in 10.0 mi NW 6.9 mph - N/A   Clear
12:55 PM 32.0 °F 25.6 °F 24.8 °F 75% 29.81 in 10.0 mi NNW 6.9 mph - N/A   Clear
1:15 PM 32.0 °F 25.6 °F 24.8 °F 75% 29.80 in 10.0 mi NW 6.9 mph - N/A   Clear
1:35 PM 32.0 °F 26.4 °F 24.8 °F 75% 29.80 in 10.0 mi NNW 5.8 mph - N/A   Clear
1:55 PM 33.8 °F 28.6 °F 26.6 °F 75% 29.79 in 10.0 mi NW 5.8 mph - N/A   Clear
2:15 PM 32.0 °F 25.6 °F 24.8 °F 75% 29.78 in 10.0 mi North 6.9 mph - N/A   Clear
2:35 PM 33.8 °F 25.8 °F 26.6 °F 75% 29.77 in 10.0 mi NNE 10.4 mph - N/A   Clear
2:55 PM 33.8 °F 27.7 °F 26.6 °F 75% 29.78 in 10.0 mi NNE 6.9 mph - N/A   Clear
3:15 PM 33.8 °F 28.6 °F 26.6 °F 75% 29.79 in 10.0 mi NNE 5.8 mph - N/A   Clear
3:35 PM 33.8 °F 30.8 °F 28.4 °F 81% 29.80 in 10.0 mi North 3.5 mph - N/A   Clear
3:55 PM 33.8 °F 27.0 °F 26.6 °F 75% 29.80 in 10.0 mi NNE 8.1 mph - N/A   Clear
4:15 PM 32.0 °F 24.8 °F 26.6 °F 80% 29.81 in 10.0 mi NNE 8.1 mph - N/A   Clear
4:35 PM 32.0 °F 24.8 °F 26.6 °F 80% 29.82 in 10.0 mi NNE 8.1 mph - N/A   Clear
4:55 PM 32.0 °F 26.4 °F 26.6 °F 80% 29.83 in 10.0 mi North 5.8 mph - N/A   Clear
5:15 PM 32.0 °F 25.6 °F 26.6 °F 80% 29.84 in 10.0 mi North 6.9 mph - N/A   Clear
5:35 PM 32.0 °F 24.8 °F 26.6 °F 80% 29.84 in 10.0 mi North 8.1 mph - N/A   Clear
5:55 PM 30.2 °F 24.3 °F 26.6 °F 86% 29.85 in 10.0 mi North 5.8 mph - N/A   Clear
6:15 PM 30.2 °F 22.6 °F 26.6 °F 86% 29.85 in 10.0 mi North 8.1 mph - N/A   Clear
6:35 PM 30.2 °F 21.9 °F 26.6 °F 86% 29.86 in 10.0 mi North 9.2 mph - N/A   Clear
6:55 PM 30.2 °F 21.9 °F 24.8 °F 80% 29.87 in 10.0 mi NNW 9.2 mph - N/A   Clear
7:15 PM 30.2 °F 21.3 °F 24.8 °F 80% 29.88 in 10.0 mi NNW 10.4 mph - N/A   Clear
7:35 PM 30.2 °F 22.6 °F 23.0 °F 75% 29.90 in 10.0 mi NNW 8.1 mph - N/A   Clear
7:55 PM 28.4 °F 21.2 °F 23.0 °F 80% 29.91 in 10.0 mi NNW 6.9 mph - N/A   Clear
8:15 PM 24.8 °F 15.3 °F 23.0 °F 93% 29.91 in 10.0 mi NW 9.2 mph - N/A   Clear
8:35 PM 24.8 °F 16.1 °F 23.0 °F 93% 29.91 in 10.0 mi NW 8.1 mph - N/A   Clear
8:55 PM 23.0 °F 13.9 °F 23.0 °F 100% 29.92 in 10.0 mi WNW 8.1 mph - N/A   Clear
9:15 PM 23.0 °F 13.1 °F 23.0 °F 100% 29.92 in 10.0 mi WNW 9.2 mph - N/A   Clear
9:35 PM 23.0 °F 11.7 °F 23.0 °F 100% 29.92 in 10.0 mi WNW 11.5 mph - N/A   Clear
9:55 PM 23.0 °F 11.1 °F 23.0 °F 100% 29.93 in 10.0 mi WNW 12.7 mph - N/A   Clear
10:15 PM 23.0 °F 13.1 °F 21.2 °F 93% 29.93 in 10.0 mi NW 9.2 mph - N/A   Clear
10:35 PM 24.8 °F 14.6 °F 21.2 °F 86% 29.94 in 10.0 mi NW 10.4 mph - N/A   Clear
10:55 PM 23.0 °F 11.1 °F 21.2 °F 93% 29.95 in 10.0 mi NW 12.7 mph - N/A   Clear
11:15 PM 23.0 °F 11.1 °F 21.2 °F 93% 29.95 in 10.0 mi NW 12.7 mph - N/A   Clear
11:35 PM 24.8 °F 14.0 °F 21.2 °F 86% 29.95 in 10.0 mi NW 11.5 mph - N/A   Clear
11:55 PM 24.8 °F 15.3 °F 23.0 °F 93% 29.95 in 10.0 mi NW 9.2 mph - N/A   Clear